Regional Weather Roundup
Issued by NWS

Home | Current Version | Previous Version | Graphics & Text | Print | Product List | Glossary On
Versions: 1 2 3 4 5 6 7 8 9 10 11 12 13 14 15 16 17 18 19 20 21 22 23 24 25 26 27 28 29 30 31 32 33 34 35 36 37 38 39 40 41 42 43 44 45 46 47 48 49 50
000
ASUS43 KMKX 031359
RWRWI

WISCONSIN REGIONAL WEATHER ROUNDUP
NATIONAL WEATHER SERVICE MILWAUKEE/SULLIVAN WI
800 AM CST TUE MAR 03 2015

NOTE: "FAIR" INDICATES FEW OR NO CLOUDS BELOW 12,000 FEET WITH NO
SIGNIFICANT WEATHER AND/OR OBSTRUCTIONS TO VISIBILITY.

WIZ001-002-006>008-014>016-023>028-031500-
NORTHWEST WISCONSIN

CITY           SKY/WX    TMP DP  RH WIND       PRES   REMARKS
SUPERIOR ARPT  LGT SNOW  21  18  91 S5        29.69F WCI  14
ASHLAND        LGT SNOW  21  15  78 S5        29.71F WCI  15
HAYWARD        CLOUDY    20  13  74 S7        29.68F WCI  11
SIREN          LGT SNOW  21  14  76 CALM      29.70F
CUMBERLAND     CLOUDY    19  14  79 SE5       29.68F WCI  13
RICE LAKE      CLOUDY    21  15  77 SE9       29.71F WCI  11
CHETEK         CLOUDY    21  15  77 E5        29.70F WCI  14
LADYSMITH      CLOUDY    22  15  77 SE5       29.73F WCI  15
EAU CLAIRE     LGT SNOW  22  16  78 SE6       29.71F VSB 1   WCI  14
MENOMONIE      LGT SNOW  23  17  80 SE5       29.71F WCI  16
NEW RICHMOND   LGT SNOW  21  14  73 CALM      29.70F
OSCEOLA        CLOUDY    22  14  71 SE5       29.74S WCI  16
$$

WIZ003>005-009-010-017-018-031500-
NORTH CENTRAL WISCONSIN

CITY           SKY/WX    TMP DP  RH WIND       PRES   REMARKS
MANITOWISH WTR CLOUDY    18  13  84 S6        29.69F WCI   9
ARBOR VITAE    CLOUDY    19  14  81 SE7       29.70F WCI  10
WOODRUFF       CLOUDY    19  14  81 SE7       29.70F WCI  10
RHINELANDER    CLOUDY    19  13  77 VRB6      29.70F WCI  11
EAGLE RIVER    PTSUNNY   19  12  77 SE3       29.71F
LAND O LAKES   CLOUDY    19  14  79 S7        29.71F WCI  10
PHILLIPS       CLOUDY    19  13  80 SE5       29.69F WCI  12
TOMAHAWK       CLOUDY    19  14  83 SE3       29.72F
MEDFORD        CLOUDY    19  14  80 SE6       29.70F WCI  11
MERRILL        CLOUDY    20  15  82 SE5       29.73F WCI  13
$$

WIZ029-030-035-036-043>047-031500-
CENTRAL WISCONSIN

CITY           SKY/WX    TMP DP  RH WIND       PRES   REMARKS
WAUSAU         LGT SNOW  20  15  81 SE9       29.71F WCI   9
MOSINEE        CLOUDY    19  18  93 SE6       29.74F VSB 3/4 WCI  11
MARSHFIELD     LGT SNOW  21  17  84 SE8       29.71F FOG     WCI  11
STEVENS POINT  LGT SNOW  20  16  83 SE8       29.75F WCI  10
WAUPACA        LGT SNOW  24  19  83 SE6       29.80F VSB 3/4 WCI  17
WAUTOMA        LGT SNOW  21  21 100 SE5       29.78F VSB 1   WCI  15
WISC RAPIDS    CLOUDY    21  16  81 SE9       29.75F HAZE    WCI  11
CAMP DOUGLAS   NOT AVBL
$$

WIZ011>013-019>022-031-037>040-048>050-031500-
NORTHEAST WISCONSIN

CITY           SKY/WX    TMP DP  RH WIND       PRES   REMARKS
ANTIGO         CLOUDY    18  15  90 SE10G16   29.74F WCI   6
SHAWANO        CLOUDY    26  18  72 S6        29.82F WCI  19
OCONTO         CLOUDY    24  22  91 SE5       29.83F WCI  18
STURGEON BAY   CLOUDY    27  21  80 S17G23    29.84F WCI  14
GREEN BAY      SNOW      26  23  88 S10       29.82F VSB 1/2 WCI  16
MANITOWOC      LGT SNOW  28  27  93 S16       29.83F FOG     WCI  17
APPLETON       NOT AVBL
CLINTONVILLE   LGT SNOW  23  19  86 S9        29.81F WCI  13
OSHKOSH        LGT SNOW  24  20  84 SE9       29.77F FOG     WCI  14
$$

WIZ032>034-041-042-053>061-031500-
SOUTHWEST WISCONSIN

CITY           SKY/WX    TMP DP  RH WIND       PRES   REMARKS
LA CROSSE      CLOUDY    25  20  81 SE9       29.72F WCI  15
SPARTA         CLOUDY    23  19  84 SE3       29.75F
VIROQUA        CLOUDY    22  21  98 SE9       29.71F WCI  11
BOSCOBEL       MIX PCPN  26  22  84 CALM      29.74F VSB 1
PRAIRIE DU CHI MIX PCPN  25  22  90 E6        29.74F WCI  18
PLATTEVILLE    CLOUDY    25  23  92 E10       29.71F WCI  15
$$

WIZ056-057-062-063-064-067-068-031500-
SOUTH CENTRAL WISCONSIN

CITY           SKY/WX    TMP DP  RH WIND       PRES   REMARKS
REEDSBURG      LGT SNOW  22  21  93 SE5       29.76F VSB 1   WCI  16
BARABOO/DELLS  LGT SNOW  22  20  89 S7        29.75F VSB 3/4 WCI  14
LONE ROCK      NOT AVBL
MINERAL POINT  LGT SNOW  27  23  86 SE14      29.71F WCI  15
MADISON        LGT SNOW  24  20  84 S15       29.76F FOG     WCI  11
MIDDLETON      CLOUDY    25  22  87 SE8       29.76F WCI  17
WATERTOWN      LGT SNOW  24  23  96 SE12      29.77F VSB 3/4 WCI  12
MONROE         LGT SNOW  25  23  93 SE13      29.74F VSB 3/4 WCI  13
JANESVILLE     SNOW      27  25  93 SE12      29.77F VSB 1/2 WCI  16
$$

WIZ051-052-058>065-066-070>072-031500-
SOUTHEAST WISCONSIN

CITY           SKY/WX    TMP DP  RH WIND       PRES   REMARKS
MILWAUKEE      SNOW      26  23  88 SE16      29.81F VSB 1/2 WCI  14
WAUKESHA       SNOW      23  21  93 SE14      29.78F VSB 1/2 WCI  11
MILWAUKEE/TIMM SNOW      27  23  86 SE9       29.81F VSB 1/2 WCI  17
RACINE         HVY SNOW  27  24  89 SE22      29.84F VSB 1/4 WCI  13
BURLINGTON     SNOW      23  22  94 SE9       29.80F VSB 1/2 WCI  13
KENOSHA        SNOW      26  25  96 SE16      29.81F VSB 1/2 WCI  14
FOND DU LAC    LGT SNOW  25  20  81 SE10      29.77F WCI  15
SHEBOYGAN      LGT SNOW  27  23  85 S13       29.82F FOG     WCI  16
WEST BEND      LGT SNOW  27  23  86 SE8       29.81F WCI  18
JUNEAU         LGT SNOW  23  21  91 SE13      29.78F WCI  11
$$

LSZ147-162-031500-
LAKE SUPERIOR

STATION/POSITION TIME  TEMP    WIND        PRES    WAVE
                       AIR SEA DIR/SP/G            HT/PER
                 (UTC) (F)     (DEG/KT/KT) (MB)    (FT/S)
DEVILS ISLAND    1300   20     180/  9/ 14 1008.2F
PORT WING        1340   22     180/  6/ 12 1006.1F
SAXON HARBOR     1340   23      CALM  /  4 1006.8F
$$

LMZ867-665-643>646-031500-
LAKE MICHIGAN

STATION/POSITION TIME  TEMP    WIND        PRES    WAVE
                       AIR SEA DIR/SP/G            HT/PER
                 (UTC) (F)     (DEG/KT/KT) (MB)    (FT/S)
NORTHPORT PIER   1305   29     160/ 10/ 16 1012.2F
SISTER BAY       1343   28     190/ 16/ 21   N/A
KEWAUNEE LAKESHO 1300          180/ 20/ 28   N/A
SHEBOYGAN LAKESH 1300   27     170/ 26/ 27 1012.4F
PORT WASHINGTON  1300   28     160/ 19/ 23 1011.9F
MILWAUKEE LAKESH 1300   27     160/ 19/ 22   N/A
KENOSHA   LAKESH 1300   27     150/ 22/ 26 1011.9F
$$

TC  - TEMPERATURE IN CELSIUS
VSB - VISIBILITY IN STATUTE MILES
WCI - WIND CHILL INDEX
HX  - HEAT INDEX




USA.gov is the U.S. government's official web portal to all federal, state and local government web resources and services.